Вернуться в каталог

ATLAS 5 CENTAUR DEB

АктивенHEO
NORAD 43976·DEBRIS·🇺🇸 United States

Запущен Sep 17, 2014 с Cape Canaveral Space Force Station

Loading…

Ближайшие Пролёты (ближайшие 24 часа)

TLE

СвежийSource: Space-Track

Эпоха: Sep 7, 2026, 15:35 UTC

1 43976U 14055AF  26250.64982708 -.00000099  00000-0  00000-0 0  9992
2 43976  20.0261 141.4914 4738340 165.1543 215.8571  1.83493364 53716

Отслеживайте ATLAS 5 CENTAUR DEB в реальном времени с AllMySat

Download on the App Store